Tracking 27188 objects as of 1-Apr-2023
HD Live streaming from Space Station
objects crossing your sky now

STARLINK-2271

Track STARLINK-2271 now!
10-day predictions
STARLINK-2271 is classified as:


NORAD ID: 48008
Int'l Code: 2021-024AH
Perigee: 553.7 km
Apogee: 555.6 km
Inclination: 53.1 °
Period: 95.6 minutes
Semi major axis: 6925 km
RCS: Unknown
Launch date: March 24, 2021
Source: United States (US)
Launch site: AIR FORCE EASTERN TEST RANGE (AFETR)
Your satellite tracking list
Your tracking list is empty




NASA's NSSDC Master Catalog

Two Line Element Set (TLE):
1 48008U 21024AH  23091.18940055  .00033787  00000-0  22822-2 0  9992
2 48008  53.0544  20.7464 0001389  82.5701 277.5446 15.06304018113569
Source of the keplerian elements: AFSPC